Location: Dead Woman Crossing
(43.5369°N, 106.3228°W)
Time: 05:21:19
(UTC+00:00)

BEESAT - Visible Passes

Search period start: 26 June 2022 00:00
Search period end: 06 July 2022 00:00
Orbit: 698 x 708 km, 98.6° (Epoch: 25 June)

Date Brightness Start Highest point End Pass type
(mag) Time Alt. Az. Time Alt. Az. Time Alt. Az.
26 Jun ? 03:28:37 10° NNE 03:33:24 77° ESE 03:38:10 10° S visible
26 Jun ? 05:08:07 10° NNW 05:10:30 14° WNW 05:12:53 10° W visible
27 Jun ? 04:11:47 10° N 04:16:16 41° WNW 04:20:43 10° SW visible
28 Jun ? 04:55:44 10° NNW 04:58:51 18° WNW 05:01:58 10° WSW visible
29 Jun ? 03:59:52 10° N 04:04:31 54° WNW 04:09:10 10° SSW visible
30 Jun ? 04:43:32 10° NNW 04:47:11 22° WNW 04:50:50 10° WSW visible
01 Jul ? 03:48:00 10° N 03:52:45 71° WNW 03:57:30 10° SSW visible
02 Jul ? 04:31:26 10° N 04:35:30 28° WNW 04:39:32 10° SW visible
03 Jul ? 03:36:10 10° NNE 03:40:58 88° ESE 03:45:44 10° SSW visible
03 Jul ? 05:16:07 10° NW 05:17:58 12° WNW 05:19:49 10° W visible
04 Jul ? 04:19:25 10° N 04:23:46 36° WNW 04:28:07 10° SW visible
05 Jul ? 03:24:23 10° NNE 03:29:09 68° ESE 03:33:54 10° S visible
05 Jul ? 05:03:32 10° NNW 05:06:19 16° WNW 05:09:06 10° W visible
